Date String (YYYY-MM-DD hh:mm:ss) UTC,Instrument flags,absolute air pressure of the measurement (hPa),sample flow rate (lpm),inlet stack bypass flow (lpm),air temperature of the measurement (°C),ambient temperature measured by the external sensor (°C),aerosol sample conditioner tube jacket temperature (°C),OPC LED temperature (°C),internal box temperature (°C),relative humidity of the measurement (%),span deviation,mass concentration of particles derived from Lorenz-Mie calculation of OPC scattering (μg/m³),mass concentration of particles derived from Lorenz-Mie calculation of OPC scattering (μg/m³),mass concentration of particles derived from Lorenz-Mie calculation of OPC scattering (μg/m³)
DateTimeUTC,F1_M11,P_M11,Q1_M11,Q2_M11,T1_M11,T2_M11,T3_M11,T4_M11,T5_M11,U1_M11,ZSPAN_M11,X2_M11,X0_M11,X1_M11
2023-08-09 02:00:00,SystemResetWarning,0829.7,5.00,000.00,029.2,028.0,000.0,037.6,031.0,26.7,0000.0,0004.46,0009.65,0003.89
2023-08-09 02:01:00,SystemResetWarning,0829.7,4.99,000.00,029.2,026.7,000.0,037.5,030.8,26.7,0000.0,0004.43,0009.51,0003.89
2023-08-09 02:02:00,SystemResetWarning,0829.7,4.99,000.00,029.2,025.5,000.0,037.4,030.6,26.9,0000.0,0004.37,0009.26,0003.90
2023-08-09 02:03:00,SystemResetWarning,0829.7,5.01,000.00,029.1,025.4,000.0,037.3,030.4,27.6,0000.0,0004.39,0009.26,0003.89
2023-08-09 02:04:00,SystemResetWarning,0829.7,5.02,000.00,029.0,025.7,000.0,037.4,030.4,27.9,0000.0,0004.40,0009.30,0003.89
2023-08-09 02:05:00,SystemResetWarning,0829.7,5.00,000.00,029.0,026.1,000.0,037.4,030.5,28.1,0000.0,0004.43,0009.52,0003.90
2023-08-09 02:06:00,SystemResetWarning,0829.8,5.00,000.00,029.0,026.5,000.0,037.5,030.6,28.2,0000.0,0004.40,0009.59,0003.89
2023-08-09 02:07:00,SystemResetWarning,0829.8,5.00,000.00,029.0,026.8,000.0,037.5,030.7,27.6,0000.0,0004.37,0009.59,0003.88
2023-08-09 02:08:00,SystemResetWarning,0829.8,5.00,000.00,029.1,027.2,000.0,037.5,030.8,27.3,0000.0,0004.40,0009.66,0003.88
2023-08-09 02:09:00,SystemResetWarning,0829.9,5.01,000.00,029.1,027.4,000.0,037.5,030.8,27.4,0000.0,0004.43,0009.03,0003.89
2023-08-09 02:10:00,SystemResetWarning,0829.9,4.99,000.00,029.1,027.7,000.0,037.6,030.9,27.3,0000.0,0004.44,0009.14,0003.90
2023-08-09 02:11:00,SystemResetWarning,0830.0,4.99,000.00,029.2,027.9,000.0,037.6,031.0,27.2,0000.0,0004.45,0009.26,0003.89
2023-08-09 02:12:00,SystemResetWarning,0830.0,5.00,000.00,029.2,028.0,000.0,037.6,031.0,27.1,0000.0,0004.44,0009.29,0003.88
2023-08-09 02:13:00,SystemResetWarning,0830.0,5.00,000.00,029.3,027.2,000.0,037.5,030.9,26.9,0000.0,0004.46,0009.35,0003.88
2023-08-09 02:14:00,SystemResetWarning,0829.9,5.00,000.00,029.2,025.7,000.0,037.4,030.6,27.0,0000.0,0004.44,0009.32,0003.88
2023-08-09 02:15:00,SystemResetWarning,0829.9,5.00,000.00,029.1,025.4,000.0,037.4,030.4,27.1,0000.0,0004.42,0010.70,0003.88
2023-08-09 02:16:00,SystemResetWarning,0829.9,5.00,000.00,029.0,025.6,000.0,037.4,030.3,27.3,0000.0,0004.38,0010.76,0003.88
2023-08-09 02:17:00,SystemResetWarning,0830.0,5.01,000.00,029.0,026.0,000.0,037.5,030.5,27.4,0000.0,0004.38,0010.60,0003.88
2023-08-09 02:18:00,SystemResetWarning,0830.0,4.99,000.00,029.0,026.4,000.0,037.5,030.6,27.3,0000.0,0004.35,0010.29,0003.89
2023-08-09 02:19:00,SystemResetWarning,0830.0,4.99,000.00,029.0,026.7,000.0,037.5,030.7,27.4,0000.0,0004.31,0009.38,0003.88
2023-08-09 02:20:00,SystemResetWarning,0830.0,4.99,000.00,029.1,027.1,000.0,037.5,030.8,27.4,0000.0,0004.31,0009.22,0003.88
2023-08-09 02:21:00,SystemResetWarning,0830.0,5.01,000.00,029.1,027.4,000.0,037.6,030.8,27.4,0000.0,0004.32,0009.11,0003.88
2023-08-09 02:22:00,SystemResetWarning,0830.1,5.01,000.00,029.1,027.6,000.0,037.6,030.9,27.4,0000.0,0004.31,0008.97,0003.88
2023-08-09 02:23:00,SystemResetWarning,0830.0,5.01,000.00,029.2,027.8,000.0,037.6,031.0,27.4,0000.0,0004.32,0008.98,0003.89
2023-08-09 02:24:00,SystemResetWarning,0830.1,4.99,000.00,029.2,028.0,000.0,037.6,031.0,27.3,0000.0,0004.32,0009.16,0003.89
2023-08-09 02:25:00,SystemResetWarning,0830.1,4.99,000.00,029.3,027.6,000.0,037.6,031.0,27.4,0000.0,0004.32,0009.21,0003.90
2023-08-09 02:26:00,SystemResetWarning,0830.1,5.00,000.00,029.2,026.0,000.0,037.5,030.7,27.5,0000.0,0004.38,0008.12,0003.91
2023-08-09 02:27:00,SystemResetWarning,0830.2,5.00,000.00,029.2,025.3,000.0,037.4,030.5,27.6,0000.0,0004.40,0008.40,0003.92
2023-08-09 02:28:00,SystemResetWarning,0830.2,5.01,000.00,029.1,025.5,000.0,037.4,030.4,27.8,0000.0,0004.42,0008.52,0003.92
2023-08-09 02:29:00,SystemResetWarning,0830.2,5.01,000.00,029.0,025.8,000.0,037.5,030.4,28.0,0000.0,0004.47,0008.70,0003.92
2023-08-09 02:30:00,SystemResetWarning,0830.2,5.00,000.00,029.0,026.2,000.0,037.5,030.5,28.1,0000.0,0004.52,0009.40,0003.93
2023-08-09 02:31:00,SystemResetWarning,0830.3,5.00,000.00,029.0,026.6,000.0,037.5,030.6,28.1,0000.0,0004.52,0009.51,0003.93
2023-08-09 02:32:00,SystemResetWarning,0830.3,5.00,000.00,029.1,027.0,000.0,037.5,030.7,28.1,0000.0,0004.54,0009.75,0003.93
2023-08-09 02:33:00,SystemResetWarning,0830.3,5.00,000.00,029.1,027.3,000.0,037.6,030.8,28.1,0000.0,0004.56,0009.81,0003.93
2023-08-09 02:34:00,SystemResetWarning,0830.4,5.00,000.00,029.1,027.5,000.0,037.6,030.9,28.1,0000.0,0004.56,0009.84,0003.93
2023-08-09 02:35:00,SystemResetWarning,0830.4,5.00,000.00,029.2,027.7,000.0,037.6,030.9,28.1,0000.0,0004.59,0010.10,0003.93
2023-08-09 02:36:00,SystemResetWarning,0830.4,5.00,000.00,029.2,027.9,000.0,037.6,031.0,28.1,0000.0,0004.58,0010.52,0003.93
2023-08-09 02:37:00,SystemResetWarning,0830.7,5.00,000.00,029.3,028.1,000.0,037.7,031.0,28.1,0000.0,0004.53,0010.63,0003.91
2023-08-09 02:38:00,SystemResetWarning,0830.4,5.00,000.00,029.3,027.3,000.0,037.6,030.9,28.0,0000.0,0004.54,0010.12,0003.90
2023-08-09 02:39:00,SystemResetWarning,0830.4,5.00,000.00,029.2,025.6,000.0,037.5,030.6,28.2,0000.0,0004.56,0010.71,0003.91
2023-08-09 02:40:00,SystemResetWarning,0830.7,5.01,000.00,029.2,025.2,000.0,037.4,030.5,28.4,0000.0,0004.56,0010.91,0003.91
2023-08-09 02:41:00,SystemResetWarning,0830.5,5.00,000.00,029.1,025.4,000.0,037.4,030.3,28.5,0000.0,0004.51,0010.31,0003.89
2023-08-09 02:42:00,SystemResetWarning,0830.6,5.00,000.00,029.0,025.8,000.0,037.5,030.4,28.7,0000.0,0004.48,0010.81,0003.89
2023-08-09 02:43:00,SystemResetWarning,0830.6,4.99,000.00,029.0,026.2,000.0,037.5,030.5,28.8,0000.0,0004.43,0010.52,0003.87
2023-08-09 02:44:00,SystemResetWarning,0830.7,5.00,000.00,029.0,026.6,000.0,037.5,030.6,28.8,0000.0,0004.40,0010.46,0003.85
2023-08-09 02:45:00,SystemResetWarning,0830.7,5.01,000.00,029.0,027.0,000.0,037.5,030.7,28.8,0000.0,0004.38,0010.40,0003.85
2023-08-09 02:46:00,SystemResetWarning,0830.8,4.99,000.00,029.1,027.3,000.0,037.6,030.8,28.8,0000.0,0004.33,0009.99,0003.84
2023-08-09 02:47:00,SystemResetWarning,0830.9,4.99,000.00,029.1,027.5,000.0,037.6,030.8,28.8,0000.0,0004.31,0010.12,0003.83
2023-08-09 02:48:00,SystemResetWarning,0830.9,5.00,000.00,029.2,027.7,000.0,037.6,030.9,28.8,0000.0,0004.31,0010.55,0003.85
2023-08-09 02:49:00,SystemResetWarning,0830.9,5.00,000.00,029.2,027.9,000.0,037.6,031.0,28.6,0000.0,0004.25,0010.37,0003.84
2023-08-09 02:50:00,SystemResetWarning,0831.0,5.00,000.00,029.3,028.1,000.0,037.7,031.0,28.3,0000.0,0004.23,0009.61,0003.83
2023-08-09 02:51:00,SystemResetWarning,0830.9,4.99,000.00,029.3,027.8,000.0,037.7,031.0,28.5,0000.0,0004.23,0009.40,0003.83
2023-08-09 02:52:00,SystemResetWarning,0830.9,5.00,000.00,029.3,026.1,000.0,037.5,030.7,28.5,0000.0,0004.24,0009.44,0003.83
2023-08-09 02:53:00,SystemResetWarning,0831.0,5.01,000.00,029.2,025.3,000.0,037.4,030.5,28.6,0000.0,0004.27,0009.24,0003.84
2023-08-09 02:54:00,SystemResetWarning,0830.9,5.01,000.00,029.1,025.4,000.0,037.4,030.4,28.7,0000.0,0004.30,0009.53,0003.85
2023-08-09 02:55:00,SystemResetWarning,0830.9,5.00,000.00,029.0,025.7,000.0,037.5,030.4,28.9,0000.0,0004.30,0009.53,0003.85
2023-08-09 02:56:00,SystemResetWarning,0831.0,5.00,000.00,029.0,026.1,000.0,037.5,030.5,29.1,0000.0,0004.32,0009.63,0003.86
2023-08-09 02:57:00,SystemResetWarning,0831.0,5.01,000.00,029.0,026.5,000.0,037.5,030.6,29.3,0000.0,0004.36,0010.06,0003.86
2023-08-09 02:58:00,SystemResetWarning,0831.0,5.01,000.00,029.0,026.8,000.0,037.5,030.7,29.2,0000.0,0004.40,0010.23,0003.86
2023-08-09 02:59:00,SystemResetWarning,0831.1,5.00,000.00,029.0,027.2,000.0,037.6,030.7,29.0,0000.0,0004.41,0009.64,0003.86
